Tracking 28794 objects as of 19-Apr-2024
HD Live streaming from Space Station
objects crossing your sky now

STARLINK-1272

Track STARLINK-1272 now!
10-day predictions
STARLINK-1272 is classified as:


NORAD ID: 45386
Int'l Code: 2020-019AC
Perigee: 553.4 km
Apogee: 555.3 km
Inclination: 53.1 °
Period: 95.6 minutes
Semi major axis: 6925 km
RCS: Unknown
Launch date: March 18, 2020
Source: United States (US)
Launch site: AIR FORCE EASTERN TEST RANGE (AFETR)
Your satellite tracking list
Your tracking list is empty




NASA's NSSDC Master Catalog

Two Line Element Set (TLE):
1 45386U 20019AC  24110.06572807  .00005580  00000-0  39336-3 0  9996
2 45386  53.0560   2.4527 0001376  92.8861 267.2286 15.06386731226067
Source of the keplerian elements: AFSPC